Location: Archemont
(49.1579°N, 1.7598°E)
Time: 11:05:30
(UTC+00:00)

Vanguard 3 - Pass Details

Date: 17 April 2024
Orbit: 509 x 3233 km, 33.3° (Epoch: 25 May)

Event Time Altitude Azimuth Distance (km) Brightness Sun altitude
Exits shadow 02:47:38 - 184° (S) 5,342 10.9 -18.9°
Reaches altitude 10° 02:51:48 10° 169° (SSE) 4,594 10.7 -18.5°
Maximum altitude 02:54:38 11° 155° (SSE) 4,223 10.6 -18.1°
Drops below altitude 10° 02:57:11 10° 141° (SE) 4,036 10.7 -17.8°
Sets 03:03:14 0° 109° (ESE) 4,323 11.3 -17.1°
